Aviador C. Campos Airport

Jump to: basic info | weather | frequencies | runways | comments

Related pages: nearby airports | nearby navaids | notams | map

Basic information (top)

Codes: CPC SAZY CHP
Location: lon -40.075401, lat -71.137299, elev 2,569 ft / 783 m msl
Status: medium_airport

Weather (top)

Current conditions (rec'd 2014/09/11 13:45Z):

SAZY 111345Z 00000KT 9999 FEW001 00/M00 Q1017

Airport forecast (rec'd 2014/09/10 12:51Z):

TAF SAZY 100500Z 1012/1112 27010KT 9999 SCT030 SCT100 TX09/1019Z TN01/1111Z

Frequencies (top)

Verify before use: may be inaccurate or out of date.

GND: 121.7 MHz (GND)
TWR: 119.6 MHz (CHAPELCO TWR)

Runways (top)

6/24: 8,202 x 148 ft (2,500 x 45 m) — paved — not lighted

Latest comments (top)

No comments yet for Aviador C. Campos Airport

More... (top)

See also NOTAMs and nearby airports and navaids, or visit the Aviador C. Campos Airport page at the main OurAirports website..